Theta_e
357 357 357 366 364 365 364 360 361 368 371 363 372 360 364 362 356 350 348 353 352 354 349 354 378 376 373 373 374 366 369 355 360 370 372 369 365 353 350 352 350 350 350 351 352 352 351 349 349 349 347 344 343 341 339 338 337 337 336 337 337 336 336 334 335 335 335 336 336 336 336 338 340 342
367 362 359 357 358 360 357 359 352 370 371 370 368 367 374 370 368 359 354 351 356 356 351 352 362 376 368 366 371 371 370 359 367 372 370 371 367 347 350 351 351 350 349 348 348 349 347 346 343 341 341 340 338 337 337 336 336 335 334 335 334 334 333 332 333 334 335 335 335 335 336 338 339 340
366 371 363 369 367 368 357 362 352 365 366 371 373 366 384 376 375 365 365 349 368 360 356 356 358 362 366 360 364 371 369 363 364 372 375 371 357 349 353 351 350 348 345 344 344 343 342 341 340 340 340 338 335 335 334 334 334 332 332 332 331 331 331 330 332 333 334 334 335 334 336 337 338 339
366 367 365 370 369 372 369 365 359 365 365 363 361 358 366 374 366 369 367 358 354 366 355 356 355 351 360 366 365 371 374 371 361 367 376 370 355 361 358 351 348 346 343 342 340 339 337 337 339 341 338 336 334 334 332 331 331 329 329 328 328 328 328 328 331 332 333 333 334 334 335 336 337 338
368 371 368 368 368 370 368 366 359 358 362 365 366 368 371 364 364 363 360 353 355 362 367 367 357 352 364 357 370 365 368 370 366 363 375 367 365 367 363 356 347 344 341 338 337 336 336 337 338 338 337 336 334 332 330 328 327 327 325 325 324 325 325 326 329 331 332 332 333 333 334 334 335 336
363 369 368 368 366 367 365 362 356 356 352 356 355 358 356 362 358 362 360 358 357 354 364 361 364 365 365 353 366 372 369 366 373 370 371 374 369 371 365 359 352 344 339 335 334 335 335 335 337 338 337 335 331 330 328 326 325 324 323 323 323 323 323 324 328 330 330 331 333 333 333 333 334 335
365 364 368 364 365 361 361 362 359 356 355 353 355 354 353 354 353 357 359 358 355 357 359 366 359 359 371 369 369 371 368 370 372 369 366 364 363 372 366 362 355 342 338 334 333 333 333 334 335 334 334 333 332 329 325 324 323 322 322 322 322 322 322 322 325 328 328 330 331 332 332 332 333 333
362 361 362 360 360 362 362 363 361 360 358 358 361 365 367 365 365 372 371 360 359 359 357 365 364 367 360 366 369 368 366 365 364 366 369 373 364 365 367 364 354 342 337 335 334 333 332 332 331 331 332 329 326 326 324 324 324 323 322 321 322 321 321 321 321 324 325 326 324 326 329 331 331 330
362 361 359 359 360 362 361 362 359 358 359 358 358 358 359 363 364 361 360 364 367 363 359 361 366 370 369 368 367 367 361 364 372 375 369 365 367 374 371 366 353 340 335 335 333 332 332 331 330 329 328 326 325 324 323 324 323 322 320 320 320 320 320 320 320 321 320 321 322 321 324 327 329 329
360 358 359 359 361 359 357 356 357 360 359 359 355 356 362 360 359 360 363 365 364 363 362 362 363 369 366 364 363 366 369 366 363 364 370 367 367 370 369 357 348 343 338 337 335 332 331 331 328 328 327 326 325 325 324 322 322 321 319 316 316 319 318 318 320 319 318 319 319 319 321 324 327 328
356 356 356 358 359 359 359 357 357 360 361 356 356 359 360 360 364 362 359 361 362 362 361 361 362 360 362 362 361 368 368 365 363 362 362 360 366 373 372 370 354 346 341 341 339 337 335 334 328 322 324 325 325 325 324 324 322 319 317 316 317 318 317 317 319 318 317 317 317 317 316 318 324 327
351 352 352 351 354 356 360 360 359 359 359 359 356 358 360 361 360 358 359 360 360 359 358 358 358 361 361 367 367 376 374 366 366 366 361 357 362 365 377 370 370 356 349 349 342 339 337 334 329 323 324 326 326 326 326 326 326 324 320 318 322 321 318 318 318 318 316 315 314 314 316 316 319 323
354 352 350 350 350 356 368 362 362 361 365 361 359 360 363 364 361 360 358 359 362 362 361 360 363 364 364 364 362 361 356 355 355 365 364 361 367 370 365 368 371 372 361 357 349 343 342 337 333 328 326 326 327 326 327 327 328 325 320 320 321 321 320 318 318 318 317 316 315 314 315 317 318 320
350 349 348 348 364 365 363 356 356 354 358 366 362 366 364 361 362 363 362 360 360 359 357 356 356 354 352 353 356 354 355 359 361 359 361 357 359 361 360 367 369 376 369 362 361 349 348 343 340 334 330 330 331 327 327 325 324 325 322 321 321 321 320 319 319 318 317 316 315 315 314 316 317 316
350 348 350 350 358 362 368 362 352 351 350 355 361 362 369 376 370 361 360 360 361 360 357 357 355 352 352 354 355 354 353 353 356 361 368 367 371 361 356 351 366 373 365 366 361 364 360 348 344 341 338 336 332 330 327 332 328 323 323 321 321 321 321 321 321 321 317 316 315 315 314 316 316 315
350 349 346 345 343 344 351 358 363 355 351 349 352 353 354 355 358 364 365 361 360 359 357 356 354 353 354 357 359 356 352 364 365 363 359 358 356 356 355 355 353 372 366 364 364 363 370 369 364 355 348 343 335 332 330 327 324 324 323 322 321 321 321 321 321 320 320 318 317 317 317 317 318 316
348 350 350 347 344 339 354 357 356 364 359 349 346 348 350 351 351 342 341 348 366 366 362 357 356 356 356 355 357 359 357 362 354 359 358 356 354 353 351 353 354 359 371 365 363 358 362 365 362 360 366 348 341 331 325 325 324 323 323 323 322 322 321 320 321 321 319 318 316 315 314 314 316 315
348 350 351 350 349 348 348 353 359 362 363 360 357 355 356 357 358 351 342 339 340 349 358 361 357 361 363 359 362 367 369 362 356 355 352 355 355 356 355 360 362 367 371 363 360 356 358 362 360 356 360 335 332 327 323 322 323 323 322 322 321 321 320 320 320 320 319 318 316 314 312 312 314 315
353 354 354 353 352 355 356 352 352 361 367 365 363 359 359 359 359 358 358 355 352 350 352 353 358 360 363 363 364 365 368 364 364 362 359 359 360 362 366 364 364 361 363 361 357 347 352 359 357 356 348 334 329 326 320 321 322 321 320 321 320 320 319 319 319 319 318 317 316 314 312 311 311 312
354 356 359 362 360 358 358 360 349 353 364 367 365 363 361 359 359 359 358 347 348 356 353 351 353 357 359 351 360 362 361 362 365 364 365 365 362 358 355 354 357 355 357 358 355 351 351 359 355 356 348 336 330 326 322 321 321 319 320 320 320 319 317 317 318 317 317 317 316 315 311 308 308 310
357 356 356 358 357 360 363 356 340 337 351 360 362 365 365 364 362 361 362 344 336 336 335 334 336 337 338 337 335 335 337 353 362 369 364 358 357 355 352 354 355 353 352 351 351 352 351 356 356 357 351 338 330 325 324 322 320 318 318 319 318 318 317 316 316 316 316 316 315 315 314 308 308 311
359 361 363 366 358 357 358 347 337 333 344 354 357 358 359 361 362 363 364 363 354 332 330 332 333 334 335 336 336 337 335 333 343 355 352 358 356 350 348 344 344 344 344 346 353 346 348 362 360 355 355 339 340 330 328 324 321 319 316 316 317 317 316 316 316 316 316 316 316 315 313 309 309 314
359 360 363 367 359 357 354 338 335 330 342 354 356 356 356 355 355 358 362 361 362 360 352 350 350 347 344 347 348 350 341 340 350 356 357 357 354 348 346 345 345 342 343 346 356 345 348 355 357 353 352 346 342 337 330 325 323 321 322 320 318 316 316 317 315 314 315 316 315 316 313 310 315 328
360 360 360 358 339 332 333 332 329 327 324 351 358 358 355 353 353 358 359 362 361 363 361 356 355 354 355 356 355 355 356 355 355 354 358 358 356 351 349 348 345 341 342 349 351 347 352 349 346 354 350 345 342 334 331 326 324 323 322 322 319 318 318 319 316 314 312 314 313 314 314 311 315 333
356 357 360 361 346 329 326 324 324 323 320 329 355 360 358 357 357 360 360 359 366 361 366 363 360 360 359 360 360 358 358 358 358 358 355 358 359 356 352 348 345 344 345 348 345 349 345 348 345 355 351 348 347 332 332 329 326 324 325 324 320 322 319 319 320 320 313 311 310 310 311 314 313 323
357 358 359 362 352 330 323 322 321 320 321 320 344 356 338 337 338 356 362 365 365 363 360 364 364 363 362 361 361 360 360 360 360 360 360 357 357 357 356 352 348 344 344 350 339 347 347 347 347 347 353 352 348 346 332 333 329 326 327 327 323 324 320 321 324 325 324 320 320 315 318 313 314 314
357 360 362 364 357 329 319 315 317 319 320 323 335 328 328 330 332 348 359 360 361 361 360 359 359 363 363 362 361 360 360 361 363 362 362 362 359 356 356 356 354 350 350 351 360 361 361 361 361 352 352 354 349 349 346 335 334 331 330 330 329 328 321 324 325 328 329 326 326 317 314 311 313 316
359 361 363 359 334 322 319 314 312 315 319 332 324 321 324 328 336 350 357 357 359 358 357 357 358 358 360 361 361 359 361 361 360 360 362 362 362 360 357 356 354 355 355 354 355 357 360 359 360 361 358 354 351 347 346 349 346 334 332 334 336 330 322 325 329 333 334 331 331 328 325 323 323 322
360 345 325 319 319 325 324 319 313 313 315 315 321 322 323 332 345 351 355 357 358 356 355 355 356 357 358 360 359 360 361 361 361 359 360 359 362 363 361 359 357 356 356 356 357 358 362 363 359 360 360 358 353 352 351 348 350 342 337 335 334 330 327 328 334 334 334 333 333 329 325 326 326 325
331 324 320 321 324 328 329 336 341 342 341 323 319 321 327 341 347 351 355 356 355 354 354 353 353 354 357 357 360 361 362 360 359 359 356 355 354 359 361 358 359 360 359 358 357 358 358 361 365 363 360 359 357 354 353 352 350 350 341 339 336 337 332 331 333 336 335 332 333 329 330 332 331 328
333 336 339 339 331 329 333 337 338 339 340 339 334 332 335 341 347 350 353 355 355 354 354 353 353 355 357 358 357 357 358 357 358 359 356 356 355 355 356 358 358 358 362 363 361 360 360 360 362 364 358 357 358 357 356 355 352 352 341 340 337 332 334 333 333 335 333 333 334 334 335 334 334 337
343 345 337 338 344 347 348 349 347 347 349 349 346 344 342 343 346 349 350 352 355 356 357 356 356 354 356 356 356 356 356 356 357 358 355 354 354 354 354 352 352 355 359 362 363 362 364 364 363 365 363 360 357 358 358 356 353 352 351 339 338 338 337 332 333 334 336 334 333 332 333 331 329 329
345 345 347 348 347 347 346 347 350 352 353 353 353 351 349 348 349 350 350 351 352 353 353 353 354 354 355 355 355 354 354 354 356 359 357 357 354 354 354 350 351 352 351 353 359 362 363 364 364 365 366 364 363 361 357 352 353 354 352 347 336 336 337 334 333 333 337 332 331 331 332 332 331 329
343 345 344 345 344 345 345 346 347 349 353 355 355 356 343 350 352 351 351 352 352 353 352 353 352 353 354 354 354 353 352 353 355 356 348 357 357 353 352 352 352 354 353 354 355 357 361 363 364 364 366 365 366 364 361 356 353 353 353 352 340 335 336 336 334 335 335 332 330 329 331 331 332 333
339 342 342 343 344 344 345 345 346 349 351 352 354 355 355 354 352 349 352 353 351 350 351 350 351 351 352 352 353 352 351 351 352 355 355 357 358 356 354 352 353 354 355 353 353 357 360 360 362 361 359 357 356 360 358 362 356 354 352 351 350 338 336 337 335 334 335 333 332 329 329 331 330 333
342 342 341 341 342 344 344 345 347 348 350 352 354 355 354 355 355 353 352 351 354 352 352 351 349 351 351 352 352 352 352 348 351 352 353 357 357 357 357 356 354 355 356 355 355 356 358 362 360 355 351 350 349 348 351 349 352 357 351 349 349 342 337 336 337 336 335 333 332 330 327 327 330 332
342 343 342 342 343 344 345 348 349 350 351 352 353 356 356 355 355 355 354 350 353 351 352 352 351 351 351 350 349 347 349 350 351 351 351 353 356 356 355 354 352 355 355 357 358 356 358 359 358 354 350 347 345 343 346 353 340 342 355 349 345 342 338 336 335 337 335 333 331 331 328 329 329 333
340 344 345 344 344 345 346 348 350 351 353 355 355 356 357 357 358 358 359 357 352 351 351 352 351 350 352 350 351 351 352 352 352 351 350 352 352 354 355 354 354 354 355 357 357 357 358 358 355 354 351 347 344 343 343 348 349 341 335 349 346 341 340 336 333 332 334 334 332 332 333 330 330 334
341 343 344 345 346 347 348 349 350 351 353 353 352 352 352 353 354 355 355 354 355 353 354 353 352 352 353 354 351 351 351 351 351 351 351 351 351 351 350 350 349 351 350 348 352 354 357 357 355 354 353 349 346 346 347 345 344 349 339 327 345 344 338 337 333 332 333 333 333 335 334 338 326 327
334 340 344 346 347 349 350 351 352 352 351 351 351 351 350 349 351 352 352 350 350 350 351 352 353 348 354 354 353 355 355 354 352 353 351 350 349 347 343 342 343 344 343 343 345 351 355 356 356 355 354 354 355 356 354 354 349 353 349 334 323 340 342 337 334 333 332 334 335 333 331 329 329 330
336 338 341 344 347 349 350 351 352 353 353 353 353 346 353 352 351 352 353 352 349 352 353 354 352 352 354 356 355 354 348 341 340 341 342 342 341 339 338 334 342 344 343 341 345 350 353 356 358 344 358 358 358 348 346 343 341 343 341 342 322 320 325 330 338 335 333 334 334 332 330 328 327 325
344 342 342 345 346 348 350 351 352 354 356 356 355 352 351 351 352 342 347 344 350 350 352 352 353 352 354 354 345 337 340 341 340 341 342 344 344 340 337 338 341 342 343 343 346 350 355 358 357 353 356 356 352 344 342 342 342 343 342 339 339 325 318 318 324 327 337 335 333 330 329 329 329 326
345 347 348 348 348 348 350 351 352 351 351 351 351 352 352 351 351 350 351 352 353 352 353 353 353 353 353 345 342 342 341 341 341 343 342 342 343 344 344 344 343 344 344 346 350 353 355 356 357 354 353 351 350 346 343 342 342 343 342 339 337 337 334 322 316 313 313 316 321 331 334 332 327 324
331 330 331 332 337 342 346 348 350 350 350 350 349 349 350 349 349 349 350 351 350 350 350 351 351 353 345 343 343 342 342 343 345 344 344 343 344 345 345 343 342 345 346 346 348 351 353 353 354 352 350 348 348 346 344 343 342 341 342 341 338 336 334 332 327 319 318 316 312 310 311 313 318 321
326 326 327 327 329 330 330 331 332 334 339 343 346 347 345 346 345 347 348 348 349 350 350 350 350 350 343 342 342 341 341 335 340 344 345 345 345 344 343 345 344 343 345 348 349 349 351 352 352 350 349 347 347 345 342 340 340 340 339 338 337 336 334 330 327 326 325 324 314 311 312 314 315 314
Wind_Speed
4 3 4 2 2 3 3 3 3 4 2 4 3 2 2 2 1 2 2 1 1 4 2 2 0 1 3 5 4 6 4 4 3 0 7 6 5 8 8 7 5 5 5 5 5 6 6 6 5 6 6 5 5 6 7 8 9 10 11 12 13 13 13 14 14 14 15 14 13 13 12 13 14 13
3 3 3 5 3 3 3 2 5 3 2 1 2 2 1 2 1 1 0 2 1 2 6 2 2 3 4 6 4 4 3 6 4 1 5 7 5 10 10 8 6 5 5 6 7 7 7 7 6 6 5 5 5 5 6 7 8 9 11 11 12 12 13 13 13 14 14 13 12 12 12 13 13 13
3 2 3 1 2 2 3 3 4 5 3 2 2 2 1 1 1 1 0 1 2 2 2 3 2 3 6 2 0 0 4 5 5 2 2 6 10 12 8 9 7 6 7 7 7 8 8 7 7 6 5 5 4 4 5 6 7 9 10 11 11 12 12 12 13 13 13 13 12 11 12 12 12 13
4 3 3 2 2 2 2 3 4 3 4 4 5 4 2 1 1 1 1 1 3 2 3 3 3 6 2 2 2 3 2 5 6 3 3 8 11 7 5 8 9 8 8 8 8 9 9 8 7 6 6 5 4 4 4 5 7 8 9 10 10 11 11 12 13 13 13 12 11 11 12 11 12 12
2 3 3 3 3 2 2 3 3 3 3 3 2 2 2 3 4 4 3 3 4 3 3 2 3 5 3 2 1 3 2 2 3 4 2 8 7 6 6 5 8 9 9 9 10 10 9 9 8 7 6 5 4 4 4 4 6 7 8 9 9 10 10 11 12 12 12 11 11 11 11 11 11 11
4 3 4 3 3 4 4 3 4 3 3 5 4 5 5 3 4 4 5 5 2 4 2 4 4 3 3 5 3 1 0 3 1 2 2 6 7 6 6 5 5 10 10 11 11 10 10 9 9 8 7 6 5 4 3 3 4 5 6 8 8 9 10 10 11 11 11 11 11 11 11 11 11 11
4 4 3 4 4 5 5 5 5 5 4 4 3 6 6 6 5 6 5 4 4 3 3 3 3 3 2 2 2 2 2 3 3 3 4 5 2 6 7 6 5 10 11 12 11 11 11 10 10 9 7 6 5 5 3 1 2 3 5 6 7 8 8 9 9 10 10 11 11 11 11 10 11 12
5 5 4 5 6 5 5 4 5 5 5 4 4 3 2 3 3 2 2 5 4 4 4 2 3 2 4 3 3 3 4 3 4 4 3 2 3 4 7 7 6 9 13 12 12 12 11 11 10 10 8 8 7 5 4 3 2 1 2 4 6 6 7 7 8 9 9 10 10 10 10 10 11 11
5 6 6 6 6 5 4 4 5 5 5 5 4 4 4 3 3 3 3 3 2 3 4 3 3 3 3 3 4 4 4 5 3 2 3 4 4 2 1 7 4 9 10 9 10 10 10 10 11 10 10 9 8 6 5 4 4 3 1 3 4 5 6 6 6 7 8 9 9 9 9 9 10 9
6 5 6 6 6 6 6 6 5 5 6 5 6 5 4 4 4 4 4 3 4 4 4 4 4 3 4 3 4 5 5 3 2 3 1 3 3 3 3 5 5 6 5 5 5 6 7 9 11 11 10 9 8 7 6 5 4 4 3 0 3 3 4 5 6 6 7 8 8 9 9 8 8 9
7 7 7 6 6 6 6 6 6 5 6 6 6 6 5 4 3 4 5 5 5 4 4 5 5 5 5 5 5 4 5 4 4 3 3 4 4 3 3 4 6 6 6 8 10 9 9 10 9 10 10 10 9 9 7 6 5 5 5 2 1 2 3 4 4 5 5 6 6 7 7 9 8 9
9 8 9 9 8 8 7 7 6 6 5 5 6 5 5 5 5 5 4 4 5 6 6 6 5 5 5 4 3 1 0 2 2 4 4 6 5 6 3 4 4 6 7 6 7 7 8 8 8 8 8 9 10 9 8 8 6 6 6 4 2 1 1 2 3 3 4 4 5 5 6 7 8 8
8 8 9 9 10 8 12 13 11 10 8 5 5 6 5 4 5 6 6 6 5 4 4 4 3 4 4 3 3 4 6 6 7 5 6 6 5 3 1 3 4 4 6 8 8 8 8 6 7 6 6 6 8 8 9 7 9 8 6 6 4 2 1 1 2 2 3 3 4 4 4 5 7 9
9 10 10 10 13 13 15 16 16 15 14 12 7 4 5 7 5 5 5 5 5 5 5 5 4 5 6 6 6 8 8 7 6 5 5 5 5 3 5 3 2 2 3 3 3 7 7 7 7 7 8 7 9 6 6 6 7 7 8 7 6 4 2 2 2 1 2 2 3 3 3 3 6 7
7 7 7 8 10 10 8 11 16 16 16 15 12 11 6 3 4 5 5 5 5 5 6 5 5 6 6 5 5 5 3 3 3 2 2 3 2 3 2 4 1 3 5 3 3 3 7 9 8 9 8 8 8 8 8 10 13 11 10 8 6 5 4 3 3 2 1 1 1 2 2 2 4 6
8 8 9 9 10 8 8 5 8 13 15 15 15 14 14 13 9 7 5 6 6 6 7 6 6 6 6 5 5 5 4 3 1 1 2 1 2 3 3 2 3 2 4 3 2 5 4 5 6 6 9 9 9 10 12 15 14 13 12 9 7 6 5 4 3 2 2 2 1 2 3 4 4 5
8 7 7 9 9 10 11 11 9 9 11 15 17 17 16 15 14 13 12 9 6 5 7 8 8 7 6 7 6 4 4 3 4 2 3 3 3 4 5 5 4 4 4 3 3 5 5 4 4 7 5 10 9 10 14 17 15 15 13 11 8 7 5 4 4 4 3 3 3 4 4 5 6 6
9 9 8 8 8 8 8 6 5 6 8 9 11 11 10 9 12 14 14 14 14 10 8 7 8 7 5 7 5 4 3 2 4 4 5 4 5 4 5 4 4 3 4 6 3 4 6 5 6 8 3 8 8 9 14 18 17 16 14 12 10 9 6 5 4 4 4 3 4 5 6 7 8 8
7 7 9 9 9 7 6 7 8 5 6 7 8 9 10 11 11 10 10 11 10 11 10 11 11 10 8 8 7 6 4 5 4 5 6 6 5 5 4 4 4 5 4 5 4 7 8 4 5 6 5 6 7 6 12 17 17 16 15 13 11 9 8 6 6 5 5 4 4 6 7 8 10 10
6 7 6 5 7 7 8 9 11 10 6 7 9 9 9 10 10 11 12 14 14 13 13 13 14 13 13 13 10 8 7 6 6 7 6 5 4 6 7 8 6 6 5 7 8 6 7 5 6 4 6 8 7 6 6 10 14 15 14 13 12 11 10 8 7 6 6 6 5 4 7 8 10 11
7 7 7 8 7 7 6 9 12 12 10 7 9 9 10 10 10 11 10 14 18 18 19 20 20 20 19 17 16 15 12 8 4 4 5 8 7 7 8 8 6 7 5 5 6 5 6 6 6 5 6 8 8 8 8 7 10 13 13 13 13 11 11 9 8 7 7 6 6 4 4 8 9 11
7 8 12 11 9 10 9 10 11 13 10 9 10 10 11 11 12 11 10 7 10 20 21 21 22 22 21 21 18 15 14 14 7 7 10 8 6 7 6 7 6 7 6 6 3 4 5 3 5 5 4 4 1 7 6 7 7 8 8 11 11 11 10 11 10 9 8 8 7 5 3 4 9 6
8 8 10 13 13 11 12 15 13 12 11 10 11 11 11 12 13 11 8 9 7 7 9 10 10 11 14 13 11 12 16 14 9 9 11 9 8 9 8 7 6 7 7 6 4 5 4 4 5 6 3 5 3 3 5 6 6 5 5 6 6 9 10 11 11 10 10 8 8 6 3 3 4 7
8 8 9 11 15 17 17 16 16 14 14 11 11 10 11 12 13 9 9 8 8 8 9 11 11 13 11 10 10 10 11 12 11 11 10 9 9 9 9 8 8 9 6 4 5 5 3 4 4 7 7 4 3 3 4 5 6 6 6 6 6 9 10 9 7 11 10 8 8 8 4 3 3 2
9 8 8 9 13 18 19 18 19 16 15 14 11 11 12 12 11 8 8 10 13 9 7 8 9 9 9 9 9 10 10 11 10 11 12 11 10 10 10 10 10 10 10 8 7 5 5 4 5 3 4 4 3 5 5 5 6 7 7 7 7 6 6 6 5 5 8 8 7 8 6 3 3 2
9 9 9 8 11 17 18 19 20 20 17 17 11 13 17 16 15 11 9 7 7 8 9 7 7 8 8 9 9 10 10 10 10 11 11 12 13 12 12 12 11 10 10 8 10 7 6 6 7 5 3 3 3 7 6 5 7 8 7 7 7 7 9 8 6 6 5 5 4 5 5 5 3 2
11 10 10 9 7 1 5 12 17 19 21 15 13 19 19 17 16 11 9 9 8 8 8 8 8 8 9 9 9 10 10 10 9 10 10 10 12 12 13 13 13 13 12 9 6 5 5 3 3 4 4 2 2 2 5 5 5 8 7 9 9 7 8 7 8 7 6 6 5 8 4 2 4 5
11 10 10 9 6 2 4 7 12 16 17 15 20 19 20 19 16 9 9 9 10 9 10 10 9 9 8 9 10 10 9 10 9 10 10 12 13 13 12 14 14 14 12 10 9 8 7 7 4 4 4 4 4 4 4 4 6 11 11 9 8 8 9 8 7 7 6 6 6 5 5 3 2 2
9 5 7 3 6 7 7 6 6 8 12 19 20 21 21 18 7 9 10 11 10 11 12 11 11 11 10 9 9 8 7 7 7 7 8 8 9 12 13 12 12 11 10 10 9 8 8 8 8 6 5 5 7 6 5 5 3 8 10 9 8 9 10 10 8 9 8 8 7 7 8 7 5 4
15 12 6 10 10 10 9 8 6 6 8 14 19 21 19 10 7 10 11 12 12 13 12 12 13 12 10 11 10 9 8 8 9 8 8 8 8 6 8 9 9 10 11 11 11 9 8 6 6 6 6 6 6 7 6 5 6 5 9 9 7 6 9 10 10 8 10 10 9 8 8 8 8 7
13 16 14 12 12 12 14 12 11 11 10 9 9 9 8 8 9 12 12 12 13 13 13 13 12 11 11 10 10 10 10 11 11 10 9 9 9 8 7 8 9 9 9 10 10 9 8 8 8 7 8 7 6 8 6 5 6 4 7 8 9 8 8 11 9 8 8 8 8 8 7 8 7 9
11 13 13 15 13 12 10 9 6 7 7 8 8 8 8 9 11 14 16 15 12 12 11 11 11 11 11 11 12 11 11 12 11 10 11 11 11 9 8 8 9 8 8 9 10 10 9 8 8 8 9 8 9 6 4 5 7 7 6 8 7 6 7 10 9 8 8 7 7 7 7 7 7 7
9 10 11 10 11 11 11 10 10 10 9 9 10 9 8 8 9 10 11 13 14 12 11 13 13 13 11 13 11 11 12 12 11 10 11 11 11 10 9 11 10 8 9 9 8 8 8 9 8 9 8 8 8 6 5 6 7 6 7 7 8 8 6 8 9 9 8 9 8 7 6 6 7 7
8 8 9 10 10 9 9 10 10 11 9 8 8 8 10 10 10 12 13 14 14 12 13 13 13 13 12 13 12 12 13 11 10 10 12 11 10 11 11 11 11 10 9 9 8 7 7 8 8 8 6 6 6 8 8 8 7 6 7 6 8 9 8 8 9 11 11 10 10 8 7 7 7 7
9 10 11 10 10 11 9 11 12 11 10 9 9 9 9 10 12 12 13 13 12 12 13 13 14 13 13 14 13 13 13 13 11 10 10 10 10 11 12 12 11 10 10 10 9 7 7 7 7 5 4 2 2 4 5 7 7 8 6 7 7 8 9 8 9 9 10 8 8 9 8 7 9 8
12 10 10 8 9 9 10 12 11 11 11 10 10 9 11 11 11 13 14 13 12 12 13 13 13 14 14 14 14 13 12 12 11 11 10 10 11 11 11 12 11 10 10 10 9 7 6 6 8 8 8 7 7 8 9 13 15 8 9 9 8 7 7 8 7 9 9 9 9 10 10 10 9 9
13 10 9 8 9 9 11 11 10 11 10 10 10 10 10 11 11 11 11 13 14 14 14 13 14 14 13 13 13 12 11 11 11 11 11 10 10 10 11 11 11 10 10 9 8 7 5 6 8 8 8 8 9 12 13 4 14 15 9 10 7 7 8 8 7 8 9 11 11 11 11 9 8 8
11 9 10 10 11 10 10 10 9 9 9 8 9 9 10 11 11 11 9 7 12 13 13 14 14 13 13 12 12 13 11 10 10 10 10 9 10 10 10 10 9 9 9 8 7 7 6 6 8 9 9 11 12 11 12 8 5 8 16 12 9 8 8 8 9 9 9 10 12 11 8 8 8 6
10 10 10 11 11 10 10 10 9 9 8 8 7 7 8 9 10 10 11 11 9 10 12 13 14 12 13 12 11 11 11 9 9 9 9 9 10 10 8 7 6 6 5 7 7 8 8 9 9 10 12 12 13 13 11 7 8 7 10 19 12 8 9 10 11 10 9 10 8 7 7 2 4 3
11 11 10 11 11 9 9 9 8 8 8 7 7 6 6 6 7 8 10 10 11 12 14 15 14 13 12 12 10 9 10 9 5 5 6 8 7 1 0 4 7 9 8 11 12 12 12 11 11 12 12 12 10 3 0 1 2 1 5 15 23 17 11 9 10 10 9 8 8 8 8 5 6 2
8 9 10 11 10 10 9 9 9 9 9 8 8 7 6 5 6 8 7 7 8 11 11 11 13 14 13 11 10 4 8 5 6 12 10 4 3 5 9 8 8 7 9 11 12 13 14 14 13 15 12 8 4 5 1 4 8 7 6 6 13 20 16 14 11 10 9 9 9 10 9 9 7 5
6 7 9 10 10 11 10 10 10 10 9 7 6 6 6 8 9 8 8 10 10 8 9 12 13 12 12 9 7 8 9 14 8 1 3 7 9 10 12 10 8 7 8 11 13 14 12 8 9 11 9 9 6 8 11 12 12 10 6 4 5 13 16 13 13 11 9 10 10 8 7 6 6 7
7 7 6 6 7 9 9 9 6 5 6 6 7 6 5 7 7 7 7 7 8 8 10 10 8 7 2 6 7 6 11 8 6 7 9 9 8 8 7 8 9 10 11 12 12 11 9 7 7 8 8 9 10 10 13 13 11 9 7 5 6 6 9 11 4 10 11 7 1 9 9 9 8 8
4 5 6 7 8 9 9 7 6 7 8 7 7 7 7 7 7 8 7 7 6 8 10 10 8 1 5 6 6 9 8 8 10 10 9 8 9 9 10 10 9 9 10 11 11 10 8 7 8 9 10 11 10 11 14 12 11 10 9 7 5 7 10 8 6 4 4 7 8 10 12 12 7 6
6 4 3 4 5 6 6 7 7 8 7 7 6 6 6 6 7 7 7 7 10 12 11 9 5 2 6 5 7 7 7 6 6 7 7 8 10 10 10 10 10 10 10 11 11 11 9 9 7 8 10 10 10 12 12 11 11 8 8 8 9 8 7 7 9 10 7 3 2 5 9 11 12 11
Wind_Direction
243 196 212 216 257 281 325 334 322 98 56 2 36 16 78 119 54 333 347 22 346 323 9 152 320 128 196 200 205 194 161 168 151 54 145 157 172 176 177 149 143 131 127 114 117 114 108 100 93 83 74 59 43 28 20 16 14 9 3 0 4 4 5 6 2 6 5 7 10 13 17 17 18 19
237 254 207 175 202 230 260 242 265 103 123 157 335 284 118 139 112 201 163 304 325 302 335 355 192 265 219 199 206 238 124 155 155 196 136 165 161 170 161 149 151 147 139 134 131 125 117 110 101 93 83 74 54 33 21 18 14 9 1 359 1 2 4 4 6 9 10 11 16 21 22 21 24 24
220 246 278 132 221 228 240 251 232 148 147 187 259 273 165 158 126 147 115 34 325 0 315 323 15 192 231 89 168 82 139 179 206 193 143 148 156 162 156 152 158 159 153 148 144 137 131 128 123 113 107 98 82 45 26 20 14 9 1 358 359 359 3 4 11 13 14 16 21 24 24 25 27 25
182 206 221 238 252 285 315 298 304 149 161 170 199 228 230 144 187 211 131 246 274 289 295 316 324 307 7 328 148 73 283 179 210 219 170 152 152 160 155 162 163 166 163 156 154 149 146 141 137 126 120 114 94 63 38 20 11 7 358 356 356 358 2 7 14 17 18 19 20 24 25 26 28 24
212 187 202 214 200 252 259 267 269 265 165 180 200 247 226 196 197 180 188 217 260 271 275 301 289 293 332 306 80 235 225 149 224 236 149 148 168 171 165 166 171 171 171 166 164 160 157 152 145 141 134 123 106 83 49 19 11 4 354 352 353 358 2 9 17 21 20 19 22 24 26 29 29 21
271 199 196 214 228 204 234 251 246 254 244 183 193 194 214 230 224 222 191 206 213 269 282 267 262 288 300 274 234 204 99 284 263 308 266 188 182 174 155 169 171 180 178 173 171 169 166 160 154 152 150 135 123 108 73 24 6 360 352 347 352 3 2 5 17 21 22 22 24 27 30 31 28 19
223 244 211 214 221 223 209 222 252 256 253 254 222 193 194 211 217 216 206 189 213 235 251 269 290 258 258 303 335 342 272 263 234 245 272 271 253 153 168 168 169 178 184 177 178 177 172 163 160 158 157 148 141 133 121 85 2 351 352 344 356 2 359 5 9 19 17 22 23 27 31 32 29 25
228 227 222 225 222 221 225 210 210 230 264 271 277 277 213 201 233 232 175 192 200 213 256 243 267 306 309 297 302 313 281 249 237 208 236 325 286 265 163 173 152 177 183 183 184 184 176 167 164 166 159 152 157 161 173 180 168 46 359 345 348 354 357 358 6 13 10 10 17 17 29 34 31 26
217 217 227 222 226 229 224 220 218 227 228 240 258 244 239 242 245 265 259 255 216 220 234 260 253 263 260 260 253 249 268 271 281 279 232 223 248 254 290 144 126 152 178 190 195 193 182 174 171 170 168 165 167 165 176 200 173 139 74 14 344 355 1 357 358 6 1 353 3 15 25 33 39 31
224 229 223 228 226 223 224 229 226 224 229 221 235 254 241 206 214 232 246 231 240 230 234 232 260 243 260 267 260 244 237 254 276 287 306 314 286 230 216 127 147 156 176 180 197 201 201 192 184 181 174 172 174 175 185 198 197 141 110 69 338 346 355 353 358 7 357 358 356 8 13 27 32 39
224 227 229 224 226 230 225 226 229 228 220 222 228 229 237 245 236 226 215 219 226 231 242 250 244 253 248 242 262 255 234 225 228 248 280 276 269 265 194 173 159 170 183 206 188 186 186 185 189 187 181 179 180 180 189 196 194 158 155 149 254 334 343 344 358 4 5 4 359 6 14 8 32 44
233 224 223 229 222 223 226 224 230 230 226 214 226 230 232 220 219 239 248 231 220 221 228 234 242 237 246 239 235 276 13 275 242 212 221 251 248 248 217 203 216 169 180 184 186 184 184 184 188 169 190 191 189 190 192 195 199 185 166 162 179 200 316 333 347 356 2 3 10 10 17 11 9 29
228 239 239 229 227 214 211 214 216 225 232 227 219 224 228 223 212 217 230 248 263 254 245 251 239 252 261 265 276 272 256 242 229 217 207 228 211 191 256 267 229 195 181 202 174 186 181 179 184 171 192 204 193 201 202 184 199 192 167 173 171 195 217 324 321 343 345 358 22 24 23 23 14 23
228 232 239 251 247 232 211 208 209 214 223 229 234 232 211 220 221 222 219 223 231 250 260 253 255 262 258 254 237 238 242 244 249 252 244 241 240 230 235 234 245 222 254 245 198 182 190 183 184 181 203 191 192 191 205 187 189 187 179 181 171 182 191 231 263 273 329 357 18 50 44 48 32 26
242 245 241 238 249 259 247 214 212 209 215 219 222 232 240 244 231 223 224 226 224 230 237 240 240 247 256 260 271 272 269 262 237 205 183 208 193 195 212 257 265 235 241 241 222 223 181 177 191 201 196 188 182 190 198 189 171 177 179 176 169 175 197 213 228 210 196 37 18 86 120 112 63 43
233 240 249 253 252 244 239 226 209 218 217 219 222 225 230 233 237 250 234 223 226 227 236 237 237 239 238 241 236 242 242 239 312 272 305 268 281 264 243 230 230 221 195 233 199 248 238 227 234 194 191 185 181 190 172 165 165 175 180 176 175 183 201 208 227 214 194 148 122 133 138 151 126 75
232 235 235 245 255 262 246 225 218 199 213 218 220 223 228 231 226 227 242 248 239 237 229 232 238 233 238 250 252 245 259 269 275 306 284 269 263 252 250 242 244 247 171 202 213 241 244 218 229 250 185 165 180 161 160 165 170 178 176 168 177 181 194 217 234 234 207 172 164 154 151 155 149 134
224 226 233 239 245 247 264 271 245 222 210 211 218 226 231 234 239 237 233 238 245 245 249 246 243 237 228 238 234 234 221 219 248 246 249 242 248 249 244 242 241 236 172 190 208 244 250 219 230 242 160 141 148 162 165 167 176 179 168 167 176 185 187 203 230 244 232 200 178 162 160 157 159 156
231 223 223 229 237 241 242 249 256 237 216 213 218 224 229 232 236 236 234 235 234 237 233 242 246 246 242 241 240 241 235 232 226 217 228 230 235 247 269 285 272 273 246 241 224 251 254 221 225 236 138 148 145 161 169 176 179 172 162 168 174 182 184 194 216 239 247 234 207 173 164 167 166 166
242 244 243 234 233 232 238 240 244 246 224 204 213 221 230 238 241 241 236 233 232 231 232 233 236 240 239 237 239 240 236 235 234 239 241 240 247 256 259 256 254 252 232 217 214 236 253 223 222 230 136 147 144 162 171 194 185 167 164 172 176 184 181 189 202 220 235 243 238 199 169 175 177 174
239 240 241 243 250 246 239 233 231 233 230 228 217 213 220 229 238 242 239 228 229 230 230 231 235 240 245 246 244 243 249 244 253 265 243 232 227 228 238 241 239 242 245 243 226 211 239 229 210 223 144 163 156 175 185 180 194 171 170 177 179 184 187 185 201 210 221 234 242 236 186 170 182 180
241 248 242 239 241 244 248 246 229 223 215 230 233 231 232 232 237 241 244 239 222 225 224 226 229 231 235 241 243 244 243 243 239 227 241 239 237 241 231 247 247 262 260 254 237 271 255 207 197 211 157 121 176 177 169 166 175 178 183 190 185 190 192 189 198 207 214 228 236 243 241 172 170 167
233 238 243 240 237 236 238 237 238 225 213 226 231 235 239 242 244 244 244 244 243 226 234 247 247 255 254 250 244 242 240 238 225 227 237 243 243 247 247 247 260 269 256 249 216 242 247 210 221 191 183 188 149 176 156 167 167 174 181 187 200 211 206 203 205 206 209 217 229 245 272 342 178 171
224 229 235 235 231 232 233 234 232 224 211 222 233 235 238 243 246 244 248 244 242 241 215 226 224 232 234 237 235 237 240 237 223 231 234 236 237 240 243 241 236 242 251 244 209 227 245 217 237 196 184 190 168 186 143 182 182 184 183 180 186 208 212 219 225 229 217 215 234 247 260 354 34 166
235 235 234 235 221 217 223 227 231 226 215 217 230 231 236 237 242 250 252 254 256 255 238 220 227 226 228 231 230 231 232 235 234 228 228 234 232 231 235 239 240 245 245 243 214 224 248 230 254 204 221 196 143 141 191 175 182 191 198 182 190 184 185 204 203 217 233 233 243 262 277 288 36 97
230 232 230 235 223 212 213 220 225 224 216 214 212 232 238 239 241 243 245 257 256 254 251 237 221 222 219 223 225 229 227 225 226 227 223 223 228 229 230 230 232 239 242 236 213 224 231 241 229 227 208 197 228 141 137 199 188 198 194 195 195 184 182 186 190 204 192 204 211 224 237 243 299 11
228 224 226 229 231 99 253 247 235 224 218 214 218 227 233 238 242 242 244 247 253 258 256 249 239 219 220 222 226 227 232 232 226 222 220 219 218 225 229 230 229 233 241 246 228 222 221 241 200 211 221 187 213 206 159 159 188 182 197 201 199 183 188 181 192 195 185 186 204 197 211 297 303 334
234 233 229 216 196 192 150 210 242 249 231 218 220 223 229 234 236 234 240 240 244 249 253 253 251 244 230 225 225 226 224 228 227 227 221 217 217 218 224 227 229 233 235 236 235 236 234 238 232 214 208 206 208 209 238 209 163 174 191 197 192 181 183 194 193 195 188 184 184 164 160 192 231 296
250 281 32 69 151 173 191 205 222 234 237 234 230 222 223 228 216 224 235 240 242 243 242 244 247 247 243 239 239 234 235 235 234 234 239 234 222 214 221 224 227 228 230 233 231 223 218 218 226 219 211 204 213 220 212 225 194 170 186 174 201 187 187 192 196 192 186 185 183 171 184 183 183 195
270 284 262 261 249 224 203 195 201 205 209 214 227 233 226 211 208 222 228 233 235 241 241 241 241 241 243 242 241 240 237 241 241 239 242 241 245 223 214 228 234 229 229 231 230 228 226 222 215 211 221 221 207 222 212 210 229 170 178 187 186 147 186 188 198 183 171 179 180 182 193 183 180 176
262 262 262 253 261 288 286 267 240 218 208 204 215 222 227 223 216 219 225 229 233 237 239 242 244 244 242 244 243 237 232 234 237 234 239 240 241 235 225 212 225 232 231 227 224 222 220 221 218 209 223 230 224 222 217 207 227 198 183 189 165 194 177 184 187 182 173 172 172 174 177 171 175 184
253 254 256 258 261 258 263 253 251 258 244 220 200 197 201 211 222 225 226 228 233 237 238 243 242 244 240 238 232 232 231 232 231 226 230 232 238 236 237 242 239 231 229 223 226 223 216 214 210 206 210 212 222 223 211 216 225 220 189 189 197 193 156 178 181 181 173 164 170 180 175 165 172 181
255 254 252 253 250 241 238 246 242 227 223 225 218 201 194 202 208 217 218 225 229 229 231 236 236 238 235 239 236 234 235 231 228 219 224 225 229 234 234 241 242 235 236 229 218 218 214 216 210 209 207 211 212 208 200 224 228 215 208 181 190 200 190 180 177 178 161 167 181 179 181 182 177 185
252 245 243 239 237 238 239 239 240 237 227 221 211 210 206 210 212 217 221 227 230 225 228 233 232 235 234 238 233 233 235 235 228 219 213 221 216 224 227 234 236 234 234 236 226 217 213 212 208 211 205 207 204 201 201 218 225 212 213 202 185 197 199 176 180 175 174 176 173 179 188 196 195 187
234 242 237 242 241 241 240 240 240 241 242 237 234 231 221 213 219 222 227 226 223 224 230 232 233 233 230 235 233 231 231 232 230 227 217 216 213 217 221 228 234 230 231 233 230 219 200 197 181 178 187 183 240 253 215 208 216 218 213 216 203 195 196 186 174 179 175 173 169 182 193 192 202 202
239 236 240 244 239 236 237 239 240 237 234 233 232 239 240 235 224 222 229 223 219 221 222 227 228 229 229 232 231 231 232 227 229 227 225 217 217 220 221 226 227 228 229 232 231 221 198 187 181 185 195 205 221 240 242 211 207 210 211 220 215 198 187 183 176 176 174 177 181 183 195 199 198 198
239 236 237 245 245 240 241 243 239 238 239 238 235 236 242 244 245 242 232 208 218 220 222 221 226 226 228 229 233 233 233 228 232 228 229 228 221 220 224 228 225 227 230 232 230 228 200 188 187 194 199 211 218 231 240 184 215 215 205 219 212 188 179 180 171 174 182 180 187 191 198 198 198 192
233 236 239 242 247 247 247 252 253 252 248 247 247 247 246 249 252 256 263 234 222 223 223 225 228 226 227 224 226 232 232 231 234 236 235 233 233 231 228 232 232 225 229 233 229 227 214 199 192 198 200 214 223 230 248 231 196 227 217 209 209 192 177 168 187 185 187 190 192 195 188 198 199 191
234 235 238 244 245 244 247 247 249 254 260 267 270 274 281 293 296 294 298 294 292 266 249 231 230 229 226 225 223 222 225 230 233 235 239 242 241 244 251 271 296 303 308 285 276 247 221 215 199 198 202 213 222 226 230 235 234 221 205 205 208 194 190 187 197 196 184 189 196 181 188 129 61 75
231 232 239 244 248 248 251 251 253 253 258 257 261 264 274 286 299 299 295 298 305 286 271 269 257 237 229 230 224 218 218 224 250 297 274 251 243 190 217 202 204 209 199 213 220 220 216 213 206 205 207 218 233 256 350 201 349 273 208 211 209 204 201 190 199 191 199 183 167 173 182 150 172 127
230 238 244 248 255 255 254 251 249 249 247 244 241 235 215 220 238 250 267 282 285 287 289 282 282 276 262 246 238 301 13 352 228 223 237 271 261 220 224 220 227 212 208 224 230 227 217 213 207 199 202 210 185 80 349 273 244 235 223 227 222 224 215 196 196 193 197 178 177 182 179 180 167 152
238 225 238 248 251 253 253 255 254 253 254 252 250 251 255 254 256 229 219 237 245 250 259 262 269 281 288 302 40 106 197 228 233 171 155 183 199 212 214 213 224 217 213 226 229 231 230 206 187 183 193 195 170 186 224 231 239 241 219 203 214 224 230 232 206 197 191 176 174 180 175 165 154 170
288 288 280 272 253 251 251 257 273 293 285 270 266 262 257 258 273 274 278 269 269 267 267 271 261 264 337 115 163 188 229 235 226 219 212 208 204 212 218 214 215 216 222 233 238 240 234 206 185 183 189 196 207 203 222 228 228 234 221 197 201 206 219 222 122 65 56 33 203 186 178 174 174 195
357 359 350 347 345 338 337 322 297 276 270 268 264 271 271 276 272 265 268 279 282 273 270 268 273 1 142 187 168 211 226 222 222 225 231 224 211 214 217 220 217 220 227 236 245 244 233 213 195 185 187 204 202 204 221 224 227 222 223 211 182 183 208 198 153 44 41 77 63 74 84 85 100 127
330 331 333 346 348 348 350 347 348 346 340 331 316 297 284 269 260 264 261 259 262 265 266 268 284 137 169 204 220 231 235 237 232 229 224 227 225 224 223 220 220 224 230 229 230 233 226 219 200 189 201 203 201 209 216 213 217 214 213 203 213 202 189 158 166 199 210 197 112 107 107 105 100 91